Weather History for KGNA - October, 2012

Change the Weather History Date:

Sunday, October 7, 2012

  Actual Average (KCKC) Record (KCKC)
Temperature  
Mean Temperature 42 °F -  
Max Temperature 50 °F 52 °F 80 °F (2003)
Min Temperature 35 °F 35 °F 21 °F (2001)
Degree Days  
Heating Degree Days 24    
Moisture  
Dew Point 32 °F    
Average Humidity 67    
Maximum Humidity 73    
Minimum Humidity 58    
Precipitation  
Precipitation 0.00 in - - ()
Sea Level Pressure  
Sea Level Pressure 29.97 in    
Wind  
Wind Speed 7 mph (WSW)    
Max Wind Speed 17 mph    
Max Gust Speed 20 mph    
Averages and records for this station are not official NWS values.
T = Trace of Precipitation, MM = Missing Value Source: NWS Daily Summary

Daily Weather History Graph

Daily Weather History Graph

Search for Another Location

Airport or City:

Trip Planner

Search our weather history database for the weather conditions in past years. The results will help you decide how hot, cold, wet, or windy it might be!

Date:

Astronomy

Oct. 07, 2012 Rise Set
Actual Time 7:09 AM CDT 6:27 PM CDT
Civil Twilight 6:38 AM CDT 6:58 PM CDT
Nautical Twilight 6:02 AM CDT 7:34 PM CDT
Astronomical Twilight 5:26 AM CDT 8:10 PM CDT
Moon 11:22 PM CDT (10/7) 2:04 PM CDT (10/7)
Length of Visible Light 12h 19m
Length of Day
11h 18m
Waning Gibbous, 56% of the Moon is Illuminated
Oct 7
Waning Gibbous
Oct 8
Last Quarter
Oct 15
New
Oct 21
First Quarter
Oct 29
Full

Hourly Weather History & Observations

Time (CDT) Temp. Windchill Dew Point Humidity Pressure Visibility Wind Dir Wind Speed Gust Speed Precip Events Conditions
12:56 AM 36.0 °F 33.3 °F 25.0 °F 64% 30.12 in - West 3.5 mph - N/A   Unknown
1:56 AM 36.0 °F 31.1 °F 27.0 °F 70% 30.11 in - WSW 5.8 mph - N/A   Unknown
2:56 AM 36.0 °F 29.6 °F 28.0 °F 73% 30.09 in - WSW 8.1 mph - N/A   Unknown
3:56 AM 35.1 °F 30.1 °F 27.0 °F 72% 30.08 in - West 5.8 mph - N/A   Unknown
4:56 AM 35.1 °F 31.0 °F 26.1 °F 70% 30.06 in - West 4.6 mph - N/A   Unknown
5:56 AM 37.0 °F 31.0 °F 28.0 °F 70% 30.05 in - WSW 8.1 mph - N/A   Unknown
6:56 AM 37.9 °F 32.1 °F 25.0 °F 60% 30.04 in - WNW 8.1 mph - N/A   Unknown
7:56 AM 39.0 °F 34.0 °F 30.0 °F 70% 30.04 in - WSW 6.9 mph - N/A   Unknown
8:56 AM 39.0 °F 34.0 °F 27.0 °F 62% 30.03 in - West 6.9 mph - N/A   Unknown
9:56 AM 42.1 °F 37.1 °F 30.0 °F 62% 30.01 in - SW 8.1 mph - N/A   Unknown
10:56 AM 42.1 °F 33.9 °F 33.1 °F 70% 29.99 in - SW 17.3 mph - N/A   Unknown
11:56 AM 44.1 °F 39.0 °F 35.1 °F 71% 29.98 in - WSW 9.2 mph 18.4 mph N/A   Unknown
12:56 PM 48.0 °F - 37.9 °F 68% 29.96 in - WSW 12.7 mph 19.6 mph N/A   Unknown
1:56 PM 48.0 °F - 37.9 °F 68% 29.94 in - WSW 9.2 mph - N/A   Unknown
2:56 PM 48.9 °F - 37.9 °F 66% 29.92 in - WSW 8.1 mph - N/A   Unknown
3:56 PM 48.0 °F - 36.0 °F 63% 29.90 in - West 8.1 mph - N/A   Unknown
4:56 PM 46.0 °F 41.9 °F 36.0 °F 68% 29.89 in - WSW 8.1 mph - N/A   Unknown
5:56 PM 45.0 °F 40.6 °F 35.1 °F 68% 29.88 in - West 8.1 mph 18.4 mph N/A   Unknown
6:56 PM 44.1 °F 39.0 °F 35.1 °F 71% 29.88 in - West 9.2 mph - N/A   Unknown
7:56 PM 44.1 °F 39.0 °F 34.0 °F 68% 29.88 in - WSW 9.2 mph - N/A   Unknown
8:56 PM 44.1 °F 39.5 °F 34.0 °F 68% 29.88 in - West 8.1 mph - N/A   Unknown
9:56 PM 43.0 °F 38.8 °F 33.1 °F 68% 29.88 in - West 6.9 mph - N/A   Unknown
10:56 PM 44.1 °F 40.1 °F 30.0 °F 58% 29.87 in - West 6.9 mph - N/A   Unknown
11:56 PM 43.0 °F 39.5 °F 32.0 °F 65% 29.85 in - West 5.8 mph - N/A   Unknown